Weather History for Beaver Island, MI

Change the Weather History Date:

Sunday, July 28, 2013

  Actual Average Record
Temperature  
Mean Temperature 51 °F -  
Max Temperature 56 °F 75 °F 88 °F (1988)
Min Temperature 46 °F 56 °F 46 °F (2013)
Degree Days  
Heating Degree Days 14    
Growing Degree Days 1 (Base 50)    
Moisture  
Dew Point 48 °F    
Average Humidity 86    
Maximum Humidity 99    
Minimum Humidity 68    
Precipitation  
Precipitation 0.00 in - - ()
Sea Level Pressure  
Sea Level Pressure 29.80 in    
Wind  
Wind Speed 7 mph (West)    
Max Wind Speed 14 mph    
Max Gust Speed 20 mph    
Visibility 10 miles    
Events Rain    
Averages and records for this station are not official NWS values.
T = Trace of Precipitation, MM = Missing Value Source: NWS Daily Summary

Daily Weather History Graph

Daily Weather History Graph

Search for Another Location

Airport:

Trip Planner

Search our weather history database for the weather conditions in past years. The results will help you decide how hot, cold, wet, or windy it might be!

Date:

Astronomy

Jul. 28, 2013 Rise Set
Actual Time 6:21 AM EDT 9:15 PM EDT
Civil Twilight 5:46 AM EDT 9:50 PM EDT
Nautical Twilight 5:01 AM EDT 10:34 PM EDT
Astronomical Twilight 4:08 AM EDT 11:26 PM EDT
Moon No Moon Rise 1:27 PM EDT (7/28)
Length of Visible Light 16h 03m
Length of Day
14h 54m
Waning Gibbous, 61% of the Moon is Illuminated
Jul 28
Waning Gibbous
Jul 29
Last Quarter
Aug 6
New
Aug 14
First Quarter
Aug 20
Full

Hourly Weather History & Observations

Time (EDT) Temp. Dew Point Humidity Pressure Visibility Wind Dir Wind Speed Gust Speed Precip Events Conditions
12:15 AM 52.0 °F 47.8 °F 86% 29.80 in 10.0 mi NNW 6.9 mph - N/A   Overcast
12:35 AM 52.0 °F 46.8 °F 82% 29.79 in 10.0 mi North 4.6 mph - N/A   Overcast
12:55 AM 51.8 °F 46.4 °F 82% 29.79 in 10.0 mi NNW 5.8 mph - N/A   Overcast
1:15 AM 51.1 °F 45.5 °F 81% 29.78 in 10.0 mi NNW 4.6 mph - N/A   Overcast
1:35 AM 50.4 °F 45.1 °F 82% 29.78 in 10.0 mi NNW 3.5 mph - N/A   Mostly Cloudy
1:55 AM 49.6 °F 45.3 °F 85% 29.77 in 10.0 mi Calm Calm - N/A   Mostly Cloudy
2:15 AM 50.9 °F 45.5 °F 82% 29.77 in 10.0 mi NW 3.5 mph - N/A   Overcast
2:35 AM 51.4 °F 46.4 °F 83% 29.78 in 10.0 mi WNW 4.6 mph - N/A   Overcast
2:55 AM 50.4 °F 45.7 °F 84% 29.77 in 10.0 mi WNW 4.6 mph - N/A   Overcast
3:14 AM 50.0 °F 46.4 °F 87% 29.77 in 10.0 mi NW 8.1 mph - N/A   Overcast
3:35 AM 49.8 °F 45.5 °F 85% 29.77 in 10.0 mi WNW 4.6 mph - N/A   Overcast
3:55 AM 49.5 °F 45.3 °F 86% 29.77 in 10.0 mi NW 6.9 mph - N/A   Overcast
4:15 AM 49.6 °F 45.5 °F 86% 29.76 in 10.0 mi NW 4.6 mph - N/A   Overcast
4:35 AM 49.6 °F 45.5 °F 86% 29.76 in 10.0 mi NW 9.2 mph - N/A   Overcast
4:55 AM 49.1 °F 44.8 °F 85% 29.76 in 10.0 mi NW 9.2 mph - N/A   Overcast
5:15 AM 48.6 °F 44.8 °F 87% 29.75 in 10.0 mi NW 9.2 mph - N/A   Overcast
5:35 AM 48.2 °F 45.0 °F 89% 29.75 in 10.0 mi WNW 5.8 mph - N/A   Overcast
5:55 AM 47.5 °F 44.8 °F 90% 29.75 in 10.0 mi WNW 8.1 mph - N/A   Overcast
6:15 AM 47.3 °F 44.4 °F 90% 29.76 in 10.0 mi West 6.9 mph - N/A   Overcast
6:35 AM 46.8 °F 44.4 °F 92% 29.75 in 10.0 mi West 4.6 mph - N/A   Mostly Cloudy
6:55 AM 46.9 °F 44.8 °F 92% 29.76 in 10.0 mi WNW 5.8 mph - N/A   Mostly Cloudy
7:15 AM 48.2 °F 45.5 °F 90% 29.77 in 10.0 mi West 4.6 mph - N/A   Overcast
7:35 AM 49.1 °F 45.5 °F 87% 29.77 in 10.0 mi West 5.8 mph - N/A   Mostly Cloudy
7:55 AM 49.1 °F 45.5 °F 87% 29.76 in 10.0 mi West 5.8 mph - N/A   Scattered Clouds
8:15 AM 51.4 °F 45.7 °F 81% 29.76 in 10.0 mi West 4.6 mph - N/A   Scattered Clouds
8:35 AM 52.7 °F 46.4 °F 79% 29.76 in 10.0 mi West 6.9 mph - N/A   Scattered Clouds
8:55 AM 53.1 °F 46.4 °F 78% 29.76 in 10.0 mi WSW 9.2 mph - N/A   Mostly Cloudy
9:15 AM 54.0 °F 46.4 °F 76% 29.76 in 10.0 mi West 10.4 mph - N/A   Mostly Cloudy
9:35 AM 53.1 °F 46.4 °F 78% 29.77 in 10.0 mi WSW 10.4 mph - N/A   Mostly Cloudy
9:55 AM 53.8 °F 45.7 °F 74% 29.77 in 10.0 mi West 11.5 mph 17.3 mph N/A   Overcast
10:10 AM 54.0 °F 45.0 °F 72% 29.77 in 10.0 mi SW 10.4 mph 17.3 mph N/A   Scattered Clouds
10:35 AM 56.1 °F 45.9 °F 68% 29.76 in 10.0 mi West 12.7 mph 16.1 mph N/A   Mostly Cloudy
10:55 AM 55.2 °F 46.6 °F 73% 29.77 in 10.0 mi SW 11.5 mph 16.1 mph N/A   Overcast
11:15 AM 56.1 °F 45.7 °F 68% 29.77 in 10.0 mi SW 13.8 mph 17.3 mph N/A   Overcast
11:35 AM 54.7 °F 46.2 °F 73% 29.78 in 10.0 mi SW 11.5 mph 17.3 mph N/A   Overcast
11:55 AM 53.8 °F 46.0 °F 75% 29.78 in 10.0 mi SW 10.4 mph - N/A   Overcast
12:15 PM 54.1 °F 46.9 °F 77% 29.78 in 10.0 mi SW 10.4 mph - N/A   Overcast
12:35 PM 53.8 °F 46.8 °F 77% 29.78 in 10.0 mi SW 10.4 mph 18.4 mph N/A   Overcast
12:55 PM 52.9 °F 47.5 °F 82% 29.79 in 5.0 mi SW 11.5 mph - N/A Rain Rain
1:15 PM 51.8 °F 50.2 °F 94% 29.79 in 5.0 mi SW 6.9 mph - N/A   Overcast
1:35 PM 53.8 °F 50.4 °F 88% 29.79 in 10.0 mi SW 12.7 mph - N/A   Overcast
1:55 PM 54.7 °F 50.2 °F 85% 29.78 in 7.0 mi WSW 13.8 mph 19.6 mph N/A   Overcast
2:14 PM 56.1 °F 50.2 °F 80% 29.79 in 10.0 mi SW 11.5 mph 18.4 mph N/A   Overcast
2:35 PM 55.6 °F 50.2 °F 82% 29.79 in 10.0 mi SW 11.5 mph 18.4 mph N/A   Overcast
2:55 PM 54.0 °F 50.5 °F 88% 29.79 in 10.0 mi SW 11.5 mph 16.1 mph N/A   Overcast
3:15 PM 55.6 °F 50.0 °F 81% 29.79 in 10.0 mi WSW 12.7 mph 18.4 mph N/A   Overcast
3:35 PM 52.5 °F 51.3 °F 95% 29.80 in 2.5 mi WSW 12.7 mph 18.4 mph N/A   Drizzle
3:55 PM 53.6 °F 52.5 °F 96% 29.81 in 3.0 mi WSW 12.7 mph 18.4 mph N/A   Overcast
4:15 PM 53.8 °F 52.3 °F 95% 29.81 in 10.0 mi WSW 10.4 mph - N/A   Overcast
4:35 PM 53.2 °F 51.4 °F 94% 29.82 in 10.0 mi SW 8.1 mph - N/A   Overcast
4:54 PM 54.5 °F 52.0 °F 91% 29.82 in 10.0 mi SW 9.2 mph - N/A   Overcast
5:15 PM 54.9 °F 51.1 °F 87% 29.82 in 10.0 mi WSW 11.5 mph - N/A   Overcast
5:35 PM 55.6 °F 50.4 °F 83% 29.82 in 10.0 mi WSW 11.5 mph - N/A   Overcast
5:55 PM 55.2 °F 49.6 °F 81% 29.83 in 10.0 mi SW 10.4 mph - N/A   Overcast
6:15 PM 52.3 °F 50.9 °F 95% 29.83 in 7.0 mi SW 5.8 mph - N/A   Overcast
6:35 PM 52.7 °F 50.7 °F 93% 29.84 in 10.0 mi WSW 3.5 mph - N/A   Mostly Cloudy
6:55 PM 53.1 °F 50.5 °F 91% 29.84 in 10.0 mi SW 4.6 mph - N/A   Scattered Clouds
7:15 PM 53.2 °F 49.8 °F 88% 29.84 in 10.0 mi Calm Calm - N/A   Mostly Cloudy
7:35 PM 53.6 °F 50.0 °F 88% 29.84 in 10.0 mi WSW 3.5 mph - N/A   Overcast
7:55 PM 53.6 °F 49.6 °F 86% 29.84 in 10.0 mi Calm Calm - N/A   Mostly Cloudy
8:15 PM 53.1 °F 49.5 °F 88% 29.85 in 10.0 mi SW 3.5 mph - N/A   Mostly Cloudy
8:35 PM 52.7 °F 50.0 °F 91% 29.85 in 10.0 mi West 3.5 mph - N/A   Overcast
8:54 PM 53.1 °F 50.4 °F 91% 29.86 in 10.0 mi Calm Calm - N/A Rain Light Rain
9:15 PM 52.7 °F 50.0 °F 91% 29.86 in 10.0 mi Calm Calm - N/A   Overcast
9:35 PM 51.8 °F 50.9 °F 97% 29.87 in 10.0 mi Calm Calm - N/A   Overcast
9:55 PM 50.9 °F 50.2 °F 97% 29.87 in 10.0 mi Calm Calm - N/A   Overcast
10:15 PM 51.1 °F 50.5 °F 98% 29.88 in 10.0 mi Calm Calm - N/A   Overcast
10:35 PM 50.7 °F 50.2 °F 98% 29.88 in 10.0 mi Calm Calm - N/A   Overcast
10:55 PM 50.7 °F 50.2 °F 98% 29.89 in 10.0 mi Calm Calm - N/A   Overcast
11:14 PM 50.5 °F 50.2 °F 99% 29.89 in 10.0 mi Calm Calm - N/A   Overcast
11:35 PM 51.1 °F 50.9 °F 99% 29.89 in 10.0 mi Calm Calm - N/A   Overcast
11:55 PM 48.9 °F 48.7 °F 99% 29.89 in 10.0 mi Calm Calm - N/A   Overcast